Time,TemperatureF,DewpointF,PressureIn,WindDirection,WindDirectionDegrees,WindSpeedMPH,WindSpeedGustMPH,Humidity,HourlyPrecipIn,Conditions,Clouds,dailyrainin,SoftwareType,DateUTC
2013-07-06 00:02:00,73.8,61.7,29.83,SSE,161,7.0,10.0,66,0.00,,---,0.00,VWS V14.00,2013-07-06 05:02:00,
2013-07-06 00:07:00,73.7,62.1,29.83,SE,139,3.0,6.0,67,0.00,,---,0.00,VWS V14.00,2013-07-06 05:07:00,
2013-07-06 00:12:00,73.6,62.0,29.83,SE,136,3.0,9.0,67,0.00,,---,0.00,VWS V14.00,2013-07-06 05:12:00,
2013-07-06 00:17:00,73.4,61.8,29.83,SE,142,2.0,9.0,67,0.00,,---,0.00,VWS V14.00,2013-07-06 05:17:00,
2013-07-06 00:22:00,73.3,62.1,29.83,South,180,4.0,9.0,68,0.00,,---,0.00,VWS V14.00,2013-07-06 05:22:00,
2013-07-06 00:27:00,73.2,62.0,29.84,SE,136,3.0,12.0,68,0.00,,---,0.00,VWS V14.00,2013-07-06 05:27:00,
2013-07-06 00:32:00,73.1,61.9,29.84,South,176,1.0,14.0,68,0.00,,---,0.00,VWS V14.00,2013-07-06 05:32:00,
2013-07-06 00:37:00,73.0,61.8,29.83,SE,126,5.0,6.0,68,0.00,,---,0.00,VWS V14.00,2013-07-06 05:37:00,
2013-07-06 00:42:00,72.9,61.7,29.83,ESE,115,0.0,7.0,68,0.00,,---,0.00,VWS V14.00,2013-07-06 05:42:00,
2013-07-06 00:47:00,72.8,62.0,29.83,NE,54,5.0,11.0,69,0.00,,---,0.00,VWS V14.00,2013-07-06 05:47:00,
2013-07-06 00:52:00,72.6,61.9,29.84,SSE,168,0.0,8.0,69,0.00,,---,0.00,VWS V14.00,2013-07-06 05:52:00,
2013-07-06 00:57:00,72.4,62.1,29.84,SE,142,0.0,10.0,70,0.00,,---,0.00,VWS V14.00,2013-07-06 05:57:00,
2013-07-06 01:02:00,72.3,62.0,29.84,SSW,195,3.0,10.0,70,0.00,,---,0.00,VWS V14.00,2013-07-06 06:02:00,
2013-07-06 01:07:00,72.1,62.2,29.84,SSE,165,1.0,8.0,71,0.00,,---,0.00,VWS V14.00,2013-07-06 06:07:00,
2013-07-06 01:12:00,71.9,62.0,29.84,South,172,0.0,8.0,71,0.00,,---,0.00,VWS V14.00,2013-07-06 06:12:00,
2013-07-06 01:17:00,71.7,61.8,29.84,SE,134,3.0,8.0,71,0.00,,---,0.00,VWS V14.00,2013-07-06 06:17:00,
2013-07-06 01:22:00,71.5,62.0,29.84,South,175,0.0,9.0,72,0.00,,---,0.00,VWS V14.00,2013-07-06 06:22:00,
2013-07-06 01:27:00,71.3,61.8,29.84,SE,134,5.0,10.0,72,0.00,,---,0.00,VWS V14.00,2013-07-06 06:27:00,
2013-07-06 01:32:00,71.2,61.7,29.84,South,172,4.0,10.0,72,0.00,,---,0.00,VWS V14.00,2013-07-06 06:32:00,
2013-07-06 01:37:00,71.0,61.9,29.84,SE,135,6.0,6.0,73,0.00,,---,0.00,VWS V14.00,2013-07-06 06:37:00,
2013-07-06 01:42:00,70.8,61.7,29.84,South,178,6.0,7.0,73,0.00,,---,0.00,VWS V14.00,2013-07-06 06:42:00,
2013-07-06 01:47:00,70.7,62.0,29.84,SSE,162,2.0,7.0,74,0.00,,---,0.00,VWS V14.00,2013-07-06 06:47:00,
2013-07-06 01:52:00,70.6,61.9,29.84,South,184,0.0,5.0,74,0.00,,---,0.00,VWS V14.00,2013-07-06 06:52:00,
2013-07-06 01:57:00,70.4,61.7,29.84,SSE,165,3.0,7.0,74,0.00,,---,0.00,VWS V14.00,2013-07-06 06:57:00,
2013-07-06 02:02:00,70.3,62.0,29.84,SSE,152,3.0,7.0,75,0.00,,---,0.00,VWS V14.00,2013-07-06 07:02:00,
2013-07-06 02:07:00,70.1,61.8,29.84,South,186,0.0,3.0,75,0.00,,---,0.00,VWS V14.00,2013-07-06 07:07:00,
2013-07-06 02:12:00,70.1,61.8,29.84,SSE,153,1.0,11.0,75,0.00,,---,0.00,VWS V14.00,2013-07-06 07:12:00,
2013-07-06 02:17:00,69.9,61.6,29.84,SW,223,2.0,11.0,75,0.00,,---,0.00,VWS V14.00,2013-07-06 07:17:00,
2013-07-06 02:22:00,69.9,62.0,29.84,ESE,122,1.0,7.0,76,0.00,,---,0.00,VWS V14.00,2013-07-06 07:22:00,
2013-07-06 02:27:00,69.8,61.9,29.84,South,179,1.0,7.0,76,0.00,,---,0.00,VWS V14.00,2013-07-06 07:27:00,
2013-07-06 02:32:00,69.7,61.8,29.84,SSE,162,0.0,7.0,76,0.00,,---,0.00,VWS V14.00,2013-07-06 07:32:00,
2013-07-06 02:37:00,69.6,61.7,29.84,SSE,157,0.0,3.0,76,0.00,,---,0.00,VWS V14.00,2013-07-06 07:37:00,
2013-07-06 02:42:00,69.5,61.6,29.84,SSE,153,3.0,5.0,76,0.00,,---,0.00,VWS V14.00,2013-07-06 07:42:00,
2013-07-06 02:47:00,69.4,61.9,29.85,SE,124,0.0,6.0,77,0.00,,---,0.00,VWS V14.00,2013-07-06 07:47:00,
2013-07-06 02:52:00,69.4,61.9,29.84,SSE,149,0.0,3.0,77,0.00,,---,0.00,VWS V14.00,2013-07-06 07:52:00,
2013-07-06 02:57:00,69.3,61.8,29.84,SE,144,0.0,6.0,77,0.00,,---,0.00,VWS V14.00,2013-07-06 07:57:00,
2013-07-06 03:02:00,69.2,61.7,29.84,SE,142,0.0,6.0,77,0.00,,---,0.00,VWS V14.00,2013-07-06 08:02:00,
2013-07-06 03:07:00,69.1,61.6,29.84,SSE,157,1.0,4.0,77,0.00,,---,0.00,VWS V14.00,2013-07-06 08:07:00,
2013-07-06 03:12:00,69.1,61.6,29.84,SE,137,0.0,5.0,77,0.00,,---,0.00,VWS V14.00,2013-07-06 08:12:00,
2013-07-06 03:17:00,69.1,62.0,29.84,SSE,150,7.0,7.0,78,0.00,,---,0.00,VWS V14.00,2013-07-06 08:17:00,
2013-07-06 03:22:00,69.1,61.6,29.84,ESE,122,1.0,5.0,77,0.00,,---,0.00,VWS V14.00,2013-07-06 08:22:00,
2013-07-06 03:27:00,69.2,62.1,29.84,South,173,2.0,10.0,78,0.00,,---,0.00,VWS V14.00,2013-07-06 08:27:00,
2013-07-06 03:32:00,69.2,61.7,29.84,SSE,148,6.0,10.0,77,0.00,,---,0.00,VWS V14.00,2013-07-06 08:32:00,
2013-07-06 03:37:00,69.3,61.8,29.85,SE,138,4.0,6.0,77,0.00,,---,0.00,VWS V14.00,2013-07-06 08:37:00,
2013-07-06 03:42:00,69.4,61.9,29.84,SSE,157,1.0,6.0,77,0.00,,---,0.00,VWS V14.00,2013-07-06 08:42:00,
2013-07-06 03:47:00,69.5,62.0,29.84,SE,132,1.0,6.0,77,0.00,,---,0.00,VWS V14.00,2013-07-06 08:47:00,
2013-07-06 03:52:00,69.5,62.0,29.84,SSE,150,0.0,3.0,77,0.00,,---,0.00,VWS V14.00,2013-07-06 08:52:00,
2013-07-06 03:57:00,69.5,62.0,29.84,SE,136,0.0,4.0,77,0.00,,---,0.00,VWS V14.00,2013-07-06 08:57:00,
2013-07-06 04:02:00,69.5,62.0,29.84,SE,136,0.0,4.0,77,0.00,,---,0.00,VWS V14.00,2013-07-06 09:02:00,
2013-07-06 04:07:00,69.4,61.9,29.84,SE,136,0.0,7.0,77,0.00,,---,0.00,VWS V14.00,2013-07-06 09:07:00,
2013-07-06 04:12:00,69.4,61.9,29.85,SE,138,0.0,9.0,77,0.00,,---,0.00,VWS V14.00,2013-07-06 09:12:00,
2013-07-06 04:17:00,69.4,61.9,29.84,SSE,157,0.0,9.0,77,0.00,,---,0.00,VWS V14.00,2013-07-06 09:17:00,
2013-07-06 04:22:00,69.4,61.9,29.85,SSE,153,2.0,2.0,77,0.00,,---,0.00,VWS V14.00,2013-07-06 09:22:00,
2013-07-06 04:27:00,69.4,61.9,29.85,SSE,147,0.0,6.0,77,0.00,,---,0.00,VWS V14.00,2013-07-06 09:27:00,
2013-07-06 04:32:00,69.4,61.9,29.85,South,188,0.0,7.0,77,0.00,,---,0.00,VWS V14.00,2013-07-06 09:32:00,
2013-07-06 04:37:00,69.4,61.9,29.84,SSE,158,0.0,3.0,77,0.00,,---,0.00,VWS V14.00,2013-07-06 09:37:00,
2013-07-06 04:42:00,69.2,62.1,29.84,South,182,0.0,4.0,78,0.00,,---,0.00,VWS V14.00,2013-07-06 09:42:00,
2013-07-06 04:47:00,69.0,61.9,29.84,SE,146,2.0,4.0,78,0.00,,---,0.00,VWS V14.00,2013-07-06 09:47:00,
2013-07-06 04:52:00,69.0,61.9,29.84,SSE,159,4.0,7.0,78,0.00,,---,0.00,VWS V14.00,2013-07-06 09:52:00,
2013-07-06 04:57:00,69.1,62.0,29.85,SSE,161,0.0,7.0,78,0.00,,---,0.00,VWS V14.00,2013-07-06 09:57:00,
2013-07-06 05:02:00,69.1,62.0,29.85,SE,134,0.0,7.0,78,0.00,,---,0.00,VWS V14.00,2013-07-06 10:02:00,
2013-07-06 05:07:00,69.0,61.9,29.84,SE,145,0.0,10.0,78,0.00,,---,0.00,VWS V14.00,2013-07-06 10:07:00,
2013-07-06 05:12:00,68.9,62.1,29.85,SE,145,0.0,10.0,79,0.00,,---,0.00,VWS V14.00,2013-07-06 10:12:00,
2013-07-06 05:17:00,68.6,61.8,29.85,South,180,0.0,10.0,79,0.00,,---,0.00,VWS V14.00,2013-07-06 10:17:00,
2013-07-06 05:22:00,68.5,61.7,29.84,ESE,116,0.0,1.0,79,0.00,,---,0.00,VWS V14.00,2013-07-06 10:22:00,
2013-07-06 05:27:00,68.3,61.9,29.85,ESE,116,0.0,1.0,80,0.00,,---,0.00,VWS V14.00,2013-07-06 10:27:00,
2013-07-06 05:32:00,68.1,62.1,29.84,SSE,168,0.0,6.0,81,0.00,,---,0.00,VWS V14.00,2013-07-06 10:32:00,
2013-07-06 05:37:00,68.1,62.1,29.85,SE,138,0.0,5.0,81,0.00,,---,0.00,VWS V14.00,2013-07-06 10:37:00,
2013-07-06 05:42:00,68.0,62.0,29.85,SE,133,0.0,5.0,81,0.00,,---,0.00,VWS V14.00,2013-07-06 10:42:00,
2013-07-06 05:47:00,67.9,61.9,29.85,SSW,207,0.0,5.0,81,0.00,,---,0.00,VWS V14.00,2013-07-06 10:47:00,
2013-07-06 05:52:00,67.9,62.2,29.85,ESE,114,0.0,3.0,82,0.00,,---,0.00,VWS V14.00,2013-07-06 10:52:00,
2013-07-06 05:57:00,67.8,62.1,29.85,SSE,162,0.0,3.0,82,0.00,,---,0.00,VWS V14.00,2013-07-06 10:57:00,
2013-07-06 06:02:00,67.7,62.0,29.85,SSE,162,0.0,3.0,82,0.00,,---,0.00,VWS V14.00,2013-07-06 11:02:00,
2013-07-06 06:07:00,67.7,62.0,29.85,SE,132,0.0,3.0,82,0.00,,---,0.00,VWS V14.00,2013-07-06 11:07:00,
2013-07-06 06:12:00,67.7,62.0,29.85,SE,129,0.0,3.0,82,0.00,,---,0.00,VWS V14.00,2013-07-06 11:12:00,
2013-07-06 06:17:00,67.7,62.4,29.85,SE,146,0.0,3.0,83,0.00,,---,0.00,VWS V14.00,2013-07-06 11:17:00,
2013-07-06 06:22:00,67.7,62.4,29.86,South,179,0.0,6.0,83,0.00,,---,0.00,VWS V14.00,2013-07-06 11:22:00,
2013-07-06 06:27:00,67.7,62.4,29.85,SSE,167,1.0,6.0,83,0.00,,---,0.00,VWS V14.00,2013-07-06 11:27:00,
2013-07-06 06:32:00,67.8,62.5,29.86,SSE,163,1.0,6.0,83,0.00,,---,0.00,VWS V14.00,2013-07-06 11:32:00,
2013-07-06 06:37:00,67.8,62.5,29.85,SE,145,0.0,2.0,83,0.00,,---,0.00,VWS V14.00,2013-07-06 11:37:00,
2013-07-06 06:42:00,67.9,62.5,29.86,SSW,193,0.0,5.0,83,0.00,,---,0.00,VWS V14.00,2013-07-06 11:42:00,
2013-07-06 06:47:00,67.9,62.2,29.86,South,182,0.0,9.0,82,0.00,,---,0.00,VWS V14.00,2013-07-06 11:47:00,
2013-07-06 06:52:00,68.0,62.3,29.85,SE,143,0.0,5.0,82,0.00,,---,0.00,VWS V14.00,2013-07-06 11:52:00,
2013-07-06 06:57:00,68.1,62.8,29.85,SE,136,3.0,5.0,83,0.00,,---,0.00,VWS V14.00,2013-07-06 11:57:00,
2013-07-06 07:02:00,68.2,62.5,29.85,SE,143,0.0,6.0,82,0.00,,---,0.00,VWS V14.00,2013-07-06 12:02:00,
2013-07-06 07:07:00,68.4,62.7,29.86,SE,141,2.0,4.0,82,0.00,,---,0.00,VWS V14.00,2013-07-06 12:07:00,
2013-07-06 07:12:00,68.5,62.8,29.86,SE,144,1.0,6.0,82,0.00,,---,0.00,VWS V14.00,2013-07-06 12:12:00,
2013-07-06 07:17:00,68.8,63.1,29.85,SSE,159,5.0,7.0,82,0.00,,---,0.00,VWS V14.00,2013-07-06 12:17:00,
2013-07-06 07:22:00,69.0,62.9,29.85,SSE,165,0.0,5.0,81,0.00,,---,0.00,VWS V14.00,2013-07-06 12:22:00,
2013-07-06 07:27:00,69.2,63.1,29.86,SSW,194,1.0,7.0,81,0.00,,---,0.00,VWS V14.00,2013-07-06 12:27:00,
2013-07-06 07:32:00,69.5,63.1,29.85,SW,223,2.0,8.0,80,0.00,,---,0.00,VWS V14.00,2013-07-06 12:32:00,
2013-07-06 07:37:00,69.7,63.3,29.86,SE,139,1.0,11.0,80,0.00,,---,0.00,VWS V14.00,2013-07-06 12:37:00,
2013-07-06 07:42:00,69.9,63.1,29.86,SE,138,2.0,11.0,79,0.00,,---,0.00,VWS V14.00,2013-07-06 12:42:00,
2013-07-06 07:47:00,70.1,63.3,29.86,SE,138,2.0,12.0,79,0.00,,---,0.00,VWS V14.00,2013-07-06 12:47:00,
2013-07-06 07:52:00,70.3,63.5,29.86,ESE,121,3.0,6.0,79,0.00,,---,0.00,VWS V14.00,2013-07-06 12:52:00,
2013-07-06 07:57:00,70.6,63.0,29.85,South,190,2.0,13.0,77,0.00,,---,0.00,VWS V14.00,2013-07-06 12:57:00,
2013-07-06 08:02:00,70.8,63.6,29.86,SSE,158,5.0,13.0,78,0.00,,---,0.00,VWS V14.00,2013-07-06 13:02:00,
2013-07-06 08:07:00,71.2,63.6,29.85,South,169,3.0,9.0,77,0.00,,---,0.00,VWS V14.00,2013-07-06 13:07:00,
2013-07-06 08:12:00,71.6,63.3,29.85,South,173,2.0,10.0,75,0.00,,---,0.00,VWS V14.00,2013-07-06 13:12:00,
2013-07-06 08:17:00,72.0,64.0,29.85,SSW,200,4.0,10.0,76,0.00,,---,0.00,VWS V14.00,2013-07-06 13:17:00,
2013-07-06 08:22:00,72.4,63.7,29.85,ESE,123,2.0,10.0,74,0.00,,---,0.00,VWS V14.00,2013-07-06 13:22:00,
2013-07-06 08:27:00,72.8,63.7,29.85,SSE,151,0.0,10.0,73,0.00,,---,0.00,VWS V14.00,2013-07-06 13:27:00,
2013-07-06 08:32:00,73.2,64.0,29.85,SSE,161,2.0,10.0,73,0.00,,---,0.00,VWS V14.00,2013-07-06 13:32:00,
2013-07-06 08:37:00,73.6,64.0,29.85,SW,225,1.0,7.0,72,0.00,,---,0.00,VWS V14.00,2013-07-06 13:37:00,
2013-07-06 08:42:00,73.9,63.9,29.85,South,184,3.0,9.0,71,0.00,,---,0.00,VWS V14.00,2013-07-06 13:42:00,
2013-07-06 08:47:00,74.1,63.7,29.85,SW,227,1.0,10.0,70,0.00,,---,0.00,VWS V14.00,2013-07-06 13:47:00,
2013-07-06 08:52:00,74.3,63.9,29.85,WSW,250,0.0,12.0,70,0.00,,---,0.00,VWS V14.00,2013-07-06 13:52:00,
2013-07-06 08:57:00,74.7,63.9,29.85,SE,142,2.0,12.0,69,0.00,,---,0.00,VWS V14.00,2013-07-06 13:57:00,
2013-07-06 09:02:00,74.9,64.1,29.85,SW,227,2.0,12.0,69,0.00,,---,0.00,VWS V14.00,2013-07-06 14:02:00,
2013-07-06 09:07:00,75.1,63.8,29.85,SSE,157,2.0,14.0,68,0.00,,---,0.00,VWS V14.00,2013-07-06 14:07:00,
2013-07-06 09:12:00,75.3,64.0,29.85,South,173,4.0,14.0,68,0.00,,---,0.00,VWS V14.00,2013-07-06 14:12:00,
2013-07-06 09:17:00,75.4,63.7,29.85,SSW,196,2.0,14.0,67,0.00,,---,0.00,VWS V14.00,2013-07-06 14:17:00,
2013-07-06 09:22:00,75.7,64.4,29.85,SSW,192,1.0,7.0,68,0.00,,---,0.00,VWS V14.00,2013-07-06 14:22:00,
2013-07-06 09:27:00,75.8,63.6,29.86,SSE,164,6.0,11.0,66,0.00,,---,0.00,VWS V14.00,2013-07-06 14:27:00,
2013-07-06 09:32:00,75.7,64.0,29.85,SW,219,3.0,11.0,67,0.00,,---,0.00,VWS V14.00,2013-07-06 14:32:00,
2013-07-06 09:37:00,75.6,63.9,29.85,SE,132,9.0,11.0,67,0.00,,---,0.00,VWS V14.00,2013-07-06 14:37:00,
2013-07-06 09:42:00,75.6,63.9,29.85,South,184,4.0,13.0,67,0.00,,---,0.00,VWS V14.00,2013-07-06 14:42:00,
2013-07-06 09:47:00,75.8,64.5,29.85,SSW,201,3.0,13.0,68,0.00,,---,0.00,VWS V14.00,2013-07-06 14:47:00,
2013-07-06 09:52:00,75.9,64.2,29.85,SE,136,9.0,10.0,67,0.00,,---,0.00,VWS V14.00,2013-07-06 14:52:00,
2013-07-06 09:57:00,75.9,64.6,29.85,ESE,122,1.0,10.0,68,0.00,,---,0.00,VWS V14.00,2013-07-06 14:57:00,
2013-07-06 10:02:00,76.2,64.4,29.85,SSE,165,1.0,11.0,67,0.00,,---,0.00,VWS V14.00,2013-07-06 15:02:00,
2013-07-06 10:07:00,76.4,64.6,29.85,ESE,122,2.0,12.0,67,0.00,,---,0.00,VWS V14.00,2013-07-06 15:07:00,
2013-07-06 10:12:00,76.4,64.6,29.85,ESE,121,5.0,12.0,67,0.00,,---,0.00,VWS V14.00,2013-07-06 15:12:00,
2013-07-06 10:17:00,76.7,64.9,29.84,SSE,168,6.0,14.0,67,0.00,,---,0.00,VWS V14.00,2013-07-06 15:17:00,
2013-07-06 10:22:00,76.8,64.6,29.84,SSE,161,6.0,11.0,66,0.00,,---,0.00,VWS V14.00,2013-07-06 15:22:00,
2013-07-06 10:27:00,76.8,65.0,29.85,SE,140,6.0,14.0,67,0.00,,---,0.00,VWS V14.00,2013-07-06 15:27:00,
2013-07-06 10:32:00,77.1,64.9,29.84,SSE,152,1.0,14.0,66,0.00,,---,0.00,VWS V14.00,2013-07-06 15:32:00,
2013-07-06 10:37:00,77.6,64.9,29.84,South,180,2.0,7.0,65,0.00,,---,0.00,VWS V14.00,2013-07-06 15:37:00,
2013-07-06 10:42:00,78.1,65.8,29.84,SSE,161,2.0,10.0,66,0.00,,---,0.00,VWS V14.00,2013-07-06 15:42:00,
2013-07-06 10:47:00,78.5,64.9,29.84,West,259,5.0,10.0,63,0.00,,---,0.00,VWS V14.00,2013-07-06 15:47:00,
2013-07-06 10:52:00,78.9,65.7,29.84,SE,139,4.0,10.0,64,0.00,,---,0.00,VWS V14.00,2013-07-06 15:52:00,
2013-07-06 10:57:00,79.3,65.6,29.84,SE,146,3.0,12.0,63,0.00,,---,0.00,VWS V14.00,2013-07-06 15:57:00,
2013-07-06 11:02:00,79.7,65.1,29.84,SE,145,8.0,12.0,61,0.00,,---,0.00,VWS V14.00,2013-07-06 16:02:00,
2013-07-06 11:07:00,79.9,65.7,29.84,South,182,2.0,11.0,62,0.00,,---,0.00,VWS V14.00,2013-07-06 16:07:00,
2013-07-06 11:13:00,80.3,65.2,29.84,SW,215,5.0,11.0,60,0.00,,---,0.00,VWS V14.00,2013-07-06 16:13:00,
2013-07-06 11:18:00,80.8,65.2,29.84,SE,136,8.0,14.0,59,0.00,,---,0.00,VWS V14.00,2013-07-06 16:18:00,
2013-07-06 11:23:00,80.9,65.2,29.84,SSE,157,4.0,12.0,59,0.00,,---,0.00,VWS V14.00,2013-07-06 16:23:00,
2013-07-06 11:28:00,81.0,64.8,29.84,East,86,4.0,12.0,58,0.00,,---,0.00,VWS V14.00,2013-07-06 16:28:00,
2013-07-06 11:33:00,81.0,64.8,29.84,WSW,248,4.0,4.0,58,0.00,,---,0.00,VWS V14.00,2013-07-06 16:33:00,
2013-07-06 11:38:00,81.4,65.7,29.84,South,180,0.0,12.0,59,0.00,,---,0.00,VWS V14.00,2013-07-06 16:38:00,
2013-07-06 11:44:00,81.8,65.1,29.84,SSE,157,4.0,13.0,57,0.00,,---,0.00,VWS V14.00,2013-07-06 16:44:00,
2013-07-06 11:49:00,81.7,65.0,29.84,South,188,3.0,5.0,57,0.00,,---,0.00,VWS V14.00,2013-07-06 16:49:00,
2013-07-06 11:54:00,81.9,65.2,29.84,SW,215,0.0,11.0,57,0.00,,---,0.00,VWS V14.00,2013-07-06 16:54:00,
2013-07-06 11:59:00,82.4,65.7,29.84,South,171,0.0,11.0,57,0.00,,---,0.00,VWS V14.00,2013-07-06 16:59:00,
2013-07-06 12:05:00,83.0,66.2,29.84,SE,133,4.0,7.0,57,0.00,,---,0.00,VWS V14.00,2013-07-06 17:05:00,
2013-07-06 12:10:00,83.1,65.8,29.84,SSE,156,9.0,10.0,56,0.00,,---,0.00,VWS V14.00,2013-07-06 17:10:00,
2013-07-06 12:16:00,83.1,65.8,29.84,ESE,112,4.0,15.0,56,0.00,,---,0.00,VWS V14.00,2013-07-06 17:16:00,
2013-07-06 12:21:00,83.3,66.0,29.84,SE,142,5.0,11.0,56,0.00,,---,0.00,VWS V14.00,2013-07-06 17:21:00,
2013-07-06 12:26:00,83.7,65.3,29.84,SW,214,4.0,15.0,54,0.00,,---,0.00,VWS V14.00,2013-07-06 17:26:00,
2013-07-06 12:31:00,84.2,65.8,29.84,SSE,159,10.0,15.0,54,0.00,,---,0.00,VWS V14.00,2013-07-06 17:31:00,
2013-07-06 12:36:00,84.4,64.9,29.83,SW,231,4.0,11.0,52,0.00,,---,0.00,VWS V14.00,2013-07-06 17:36:00,
2013-07-06 12:41:00,84.3,65.3,29.83,SE,144,6.0,12.0,53,0.00,,---,0.00,VWS V14.00,2013-07-06 17:41:00,
2013-07-06 12:46:00,84.5,65.5,29.83,SSE,155,5.0,12.0,53,0.00,,---,0.00,VWS V14.00,2013-07-06 17:46:00,
2013-07-06 12:51:00,85.0,66.5,29.83,SSE,163,2.0,10.0,54,0.00,,---,0.00,VWS V14.00,2013-07-06 17:51:00,
2013-07-06 12:56:00,85.3,65.7,29.83,South,190,1.0,13.0,52,0.00,,---,0.00,VWS V14.00,2013-07-06 17:56:00,
2013-07-06 13:01:00,85.6,66.5,29.83,SE,140,7.0,13.0,53,0.00,,---,0.00,VWS V14.00,2013-07-06 18:01:00,
2013-07-06 13:07:00,85.8,66.7,29.83,SSW,208,4.0,10.0,53,0.00,,---,0.00,VWS V14.00,2013-07-06 18:07:00,
2013-07-06 13:12:00,85.8,66.2,29.83,SSE,155,9.0,12.0,52,0.00,,---,0.00,VWS V14.00,2013-07-06 18:12:00,
2013-07-06 13:17:00,85.8,65.0,29.82,SSE,156,2.0,12.0,50,0.00,,---,0.00,VWS V14.00,2013-07-06 18:17:00,
2013-07-06 13:22:00,86.0,64.6,29.82,SSE,165,11.0,11.0,49,0.00,,---,0.00,VWS V14.00,2013-07-06 18:22:00,
2013-07-06 13:28:00,85.7,64.4,29.82,SSW,207,5.0,13.0,49,0.00,,---,0.00,VWS V14.00,2013-07-06 18:28:00,
2013-07-06 13:33:00,85.9,63.3,29.82,SE,146,6.0,13.0,47,0.00,,---,0.00,VWS V14.00,2013-07-06 18:33:00,
2013-07-06 13:38:00,86.0,63.4,29.82,East,86,5.0,13.0,47,0.00,,---,0.00,VWS V14.00,2013-07-06 18:38:00,
2013-07-06 13:43:00,86.2,64.2,29.82,SSE,167,2.0,13.0,48,0.00,,---,0.00,VWS V14.00,2013-07-06 18:43:00,
2013-07-06 13:48:00,86.5,63.9,29.82,SE,137,6.0,6.0,47,0.00,,---,0.00,VWS V14.00,2013-07-06 18:48:00,
2013-07-06 13:54:00,86.6,64.0,29.82,South,178,0.0,9.0,47,0.00,,---,0.00,VWS V14.00,2013-07-06 18:54:00,
2013-07-06 13:59:00,87.1,65.1,29.82,NW,313,0.0,9.0,48,0.00,,---,0.00,VWS V14.00,2013-07-06 18:59:00,
2013-07-06 14:04:00,87.3,64.0,29.82,West,269,4.0,7.0,46,0.00,,---,0.00,VWS V14.00,2013-07-06 19:04:00,
2013-07-06 14:09:00,87.2,64.5,29.82,South,175,6.0,11.0,47,0.00,,---,0.00,VWS V14.00,2013-07-06 19:09:00,
2013-07-06 14:16:00,87.3,65.2,29.81,SSE,155,1.0,11.0,48,0.00,,---,0.00,VWS V14.00,2013-07-06 19:16:00,
2013-07-06 14:21:00,87.3,65.8,29.81,SSE,159,2.0,5.0,49,0.00,,---,0.00,VWS V14.00,2013-07-06 19:21:00,
2013-07-06 14:27:00,87.1,65.1,29.81,SE,141,2.0,13.0,48,0.00,,---,0.00,VWS V14.00,2013-07-06 19:27:00,
2013-07-06 14:32:00,86.8,64.8,29.81,SSE,148,10.0,13.0,48,0.00,,---,0.00,VWS V14.00,2013-07-06 19:32:00,
2013-07-06 14:37:00,86.4,65.0,29.81,SE,146,5.0,10.0,49,0.00,,---,0.00,VWS V14.00,2013-07-06 19:37:00,
2013-07-06 14:42:00,86.5,64.5,29.81,SW,226,4.0,13.0,48,0.00,,---,0.00,VWS V14.00,2013-07-06 19:42:00,
2013-07-06 14:47:00,86.9,64.9,29.81,ESE,123,2.0,13.0,48,0.00,,---,0.00,VWS V14.00,2013-07-06 19:47:00,
2013-07-06 14:52:00,87.0,64.3,29.81,South,182,3.0,14.0,47,0.00,,---,0.00,VWS V14.00,2013-07-06 19:52:00,
2013-07-06 14:58:00,86.9,64.9,29.81,SE,139,6.0,14.0,48,0.00,,---,0.00,VWS V14.00,2013-07-06 19:58:00,
2013-07-06 15:03:00,86.7,65.9,29.81,SE,144,2.0,14.0,50,0.00,,---,0.00,VWS V14.00,2013-07-06 20:03:00,
2013-07-06 15:08:00,86.4,64.4,29.81,SSW,199,4.0,13.0,48,0.00,,---,0.00,VWS V14.00,2013-07-06 20:08:00,
2013-07-06 15:13:00,85.8,64.4,29.81,South,171,0.0,13.0,49,0.00,,---,0.00,VWS V14.00,2013-07-06 20:13:00,
2013-07-06 15:18:00,85.4,64.7,29.81,SE,146,5.0,10.0,50,0.00,,---,0.00,VWS V14.00,2013-07-06 20:18:00,
2013-07-06 15:23:00,85.2,63.9,29.81,South,190,5.0,10.0,49,0.00,,---,0.00,VWS V14.00,2013-07-06 20:23:00,
2013-07-06 15:28:00,85.3,64.6,29.82,West,264,2.0,10.0,50,0.00,,---,0.00,VWS V14.00,2013-07-06 20:28:00,
2013-07-06 15:33:00,85.2,64.5,29.81,ESE,119,3.0,5.0,50,0.00,,---,0.00,VWS V14.00,2013-07-06 20:33:00,
2013-07-06 15:38:00,85.1,65.0,29.82,SE,141,0.0,10.0,51,0.00,,---,0.00,VWS V14.00,2013-07-06 20:38:00,
2013-07-06 15:43:00,85.0,65.4,29.82,WSW,249,0.0,10.0,52,0.00,,---,0.00,VWS V14.00,2013-07-06 20:43:00,
2013-07-06 15:49:00,84.9,65.3,29.82,SE,138,3.0,5.0,52,0.00,,---,0.00,VWS V14.00,2013-07-06 20:49:00,
2013-07-06 15:54:00,84.8,65.2,29.82,South,188,3.0,8.0,52,0.00,,---,0.00,VWS V14.00,2013-07-06 20:54:00,
2013-07-06 15:59:00,84.8,64.7,29.82,SW,216,3.0,9.0,51,0.00,,---,0.00,VWS V14.00,2013-07-06 20:59:00,
2013-07-06 16:05:00,85.3,64.6,29.81,SSW,208,2.0,5.0,50,0.00,,---,0.00,VWS V14.00,2013-07-06 21:05:00,
2013-07-06 16:10:00,85.4,64.7,29.81,SSE,167,3.0,11.0,50,0.00,,---,0.00,VWS V14.00,2013-07-06 21:10:00,
2013-07-06 16:15:00,85.4,65.8,29.81,South,188,5.0,11.0,52,0.00,,---,0.00,VWS V14.00,2013-07-06 21:15:00,
2013-07-06 16:20:00,85.3,65.7,29.81,South,182,3.0,10.0,52,0.00,,---,0.00,VWS V14.00,2013-07-06 21:20:00,
2013-07-06 16:25:00,85.3,65.7,29.81,ESE,115,6.0,10.0,52,0.00,,---,0.00,VWS V14.00,2013-07-06 21:25:00,
2013-07-06 16:30:00,85.7,65.5,29.81,SSE,156,8.0,11.0,51,0.00,,---,0.00,VWS V14.00,2013-07-06 21:30:00,
2013-07-06 16:35:00,86.3,65.5,29.81,ESE,119,9.0,10.0,50,0.00,,---,0.00,VWS V14.00,2013-07-06 21:35:00,
2013-07-06 16:41:00,86.3,65.5,29.81,WSW,238,2.0,10.0,50,0.00,,---,0.00,VWS V14.00,2013-07-06 21:41:00,
2013-07-06 16:46:00,86.2,65.4,29.81,South,181,1.0,10.0,50,0.00,,---,0.00,VWS V14.00,2013-07-06 21:46:00,
2013-07-06 16:51:00,86.4,66.2,29.81,SSE,148,1.0,5.0,51,0.00,,---,0.00,VWS V14.00,2013-07-06 21:51:00,
2013-07-06 16:56:00,86.5,66.8,29.81,SSE,161,1.0,5.0,52,0.00,,---,0.00,VWS V14.00,2013-07-06 21:56:00,
2013-07-06 17:01:00,86.5,66.2,29.81,SSE,152,5.0,7.0,51,0.00,,---,0.00,VWS V14.00,2013-07-06 22:01:00,
2013-07-06 17:06:00,86.0,66.3,29.81,SE,138,4.0,7.0,52,0.00,,---,0.00,VWS V14.00,2013-07-06 22:06:00,
2013-07-06 17:11:00,85.4,65.8,29.81,SSW,198,4.0,7.0,52,0.00,,---,0.00,VWS V14.00,2013-07-06 22:11:00,
2013-07-06 17:17:00,85.3,65.7,29.80,South,172,0.0,9.0,52,0.00,,---,0.00,VWS V14.00,2013-07-06 22:17:00,
2013-07-06 17:22:00,85.5,65.9,29.80,SSW,201,2.0,7.0,52,0.00,,---,0.00,VWS V14.00,2013-07-06 22:22:00,
2013-07-06 17:27:00,86.0,66.9,29.80,South,184,4.0,7.0,53,0.00,,---,0.00,VWS V14.00,2013-07-06 22:27:00,
2013-07-06 17:32:00,86.0,65.8,29.80,West,262,2.0,9.0,51,0.00,,---,0.00,VWS V14.00,2013-07-06 22:32:00,
2013-07-06 17:37:00,85.7,66.6,29.80,SW,225,5.0,5.0,53,0.00,,---,0.00,VWS V14.00,2013-07-06 22:37:00,
2013-07-06 17:42:00,85.5,66.4,29.80,South,177,2.0,6.0,53,0.00,,---,0.00,VWS V14.00,2013-07-06 22:42:00,
2013-07-06 17:47:00,85.7,67.2,29.80,ESE,121,9.0,9.0,54,0.00,,---,0.00,VWS V14.00,2013-07-06 22:47:00,
2013-07-06 17:52:00,85.5,66.4,29.80,SSE,152,2.0,10.0,53,0.00,,---,0.00,VWS V14.00,2013-07-06 22:52:00,
2013-07-06 17:57:00,85.0,66.5,29.80,SSE,148,2.0,10.0,54,0.00,,---,0.00,VWS V14.00,2013-07-06 22:57:00,
2013-07-06 18:02:00,84.5,67.1,29.80,SE,141,0.0,10.0,56,0.00,,---,0.00,VWS V14.00,2013-07-06 23:02:00,
2013-07-06 18:08:00,84.5,67.1,29.79,SE,126,1.0,4.0,56,0.00,,---,0.00,VWS V14.00,2013-07-06 23:08:00,
2013-07-06 18:13:00,84.7,67.8,29.80,SSE,161,0.0,6.0,57,0.00,,---,0.00,VWS V14.00,2013-07-06 23:13:00,
2013-07-06 18:18:00,84.7,67.3,29.80,South,169,0.0,6.0,56,0.00,,---,0.00,VWS V14.00,2013-07-06 23:18:00,
2013-07-06 18:23:00,84.5,67.1,29.80,SSE,147,2.0,14.0,56,0.00,,---,0.00,VWS V14.00,2013-07-06 23:23:00,
2013-07-06 18:28:00,84.2,66.8,29.79,SSE,148,1.0,14.0,56,0.00,,---,0.00,VWS V14.00,2013-07-06 23:28:00,
2013-07-06 18:33:00,83.9,67.1,29.79,SE,136,0.0,1.0,57,0.00,,---,0.00,VWS V14.00,2013-07-06 23:33:00,
2013-07-06 18:39:00,83.5,67.2,29.80,SE,138,0.0,9.0,58,0.00,,---,0.00,VWS V14.00,2013-07-06 23:39:00,
2013-07-06 18:44:00,83.0,67.2,29.80,South,190,0.0,9.0,59,0.00,,---,0.00,VWS V14.00,2013-07-06 23:44:00,
2013-07-06 18:49:00,82.7,67.4,29.80,South,190,0.0,1.0,60,0.00,,---,0.00,VWS V14.00,2013-07-06 23:49:00,
2013-07-06 18:54:00,82.5,67.2,29.79,South,190,0.0,1.0,60,0.00,,---,0.00,VWS V14.00,2013-07-06 23:54:00,
2013-07-06 18:59:00,82.3,68.0,29.79,SSE,158,0.0,3.0,62,0.00,,---,0.00,VWS V14.00,2013-07-06 23:59:00,
2013-07-06 19:04:00,82.0,67.2,29.80,SSE,158,0.0,0.0,61,0.00,,---,0.00,VWS V14.00,2013-07-07 00:04:00,
2013-07-06 19:10:00,81.6,66.9,29.80,SSE,158,0.0,1.0,61,0.00,,---,0.00,VWS V14.00,2013-07-07 00:10:00,
2013-07-06 19:15:00,81.4,67.6,29.80,SSE,158,0.0,3.0,63,0.00,,---,0.00,VWS V14.00,2013-07-07 00:15:00,
2013-07-06 19:20:00,81.2,67.4,29.80,SSE,158,0.0,0.0,63,0.00,,---,0.00,VWS V14.00,2013-07-07 00:20:00,
2013-07-06 19:25:00,80.9,67.6,29.80,SSE,158,1.0,1.0,64,0.00,,---,0.00,VWS V14.00,2013-07-07 00:25:00,
2013-07-06 19:30:00,80.7,68.3,29.80,SSE,158,0.0,1.0,66,0.00,,---,0.00,VWS V14.00,2013-07-07 00:30:00,
2013-07-06 19:35:00,80.5,68.1,29.80,SSE,158,0.0,0.0,66,0.00,,---,0.00,VWS V14.00,2013-07-07 00:35:00,
2013-07-06 19:40:00,80.3,68.8,29.80,SSE,158,0.0,0.0,68,0.00,,---,0.00,VWS V14.00,2013-07-07 00:40:00,
2013-07-06 19:45:00,80.1,68.2,29.80,SSE,158,0.0,1.0,67,0.00,,---,0.00,VWS V14.00,2013-07-07 00:45:00,
2013-07-06 19:51:00,79.9,68.0,29.80,SSE,158,0.0,1.0,67,0.00,,---,0.00,VWS V14.00,2013-07-07 00:51:00,
2013-07-06 19:56:00,79.6,68.1,29.80,SSE,158,0.0,1.0,68,0.00,,---,0.00,VWS V14.00,2013-07-07 00:56:00,
2013-07-06 20:01:00,79.2,69.4,29.80,SSE,158,2.0,3.0,72,0.00,,---,0.01,VWS V14.00,2013-07-07 01:01:00,
2013-07-06 20:06:00,78.0,70.2,29.81,NNE,33,0.0,0.0,77,0.14,,---,0.03,VWS V14.00,2013-07-07 01:06:00,
2013-07-06 20:11:00,76.6,70.3,29.81,NNE,33,0.0,0.0,81,0.07,,---,0.03,VWS V14.00,2013-07-07 01:11:00,
2013-07-06 20:17:00,75.5,70.0,29.82,NNE,33,0.0,0.0,83,0.04,,---,0.03,VWS V14.00,2013-07-07 01:17:00,
2013-07-06 20:22:00,74.6,70.1,29.81,NNE,33,0.0,0.0,86,0.00,,---,0.03,VWS V14.00,2013-07-07 01:22:00,
2013-07-06 20:27:00,73.5,69.7,29.81,NNE,33,0.0,1.0,88,0.00,,---,0.03,VWS V14.00,2013-07-07 01:27:00,
2013-07-06 20:32:00,72.7,69.6,29.82,NNE,33,0.0,1.0,90,0.00,,---,0.03,VWS V14.00,2013-07-07 01:32:00,
2013-07-06 20:38:00,72.3,69.2,29.82,NNE,33,0.0,0.0,90,0.00,,---,0.03,VWS V14.00,2013-07-07 01:38:00,
2013-07-06 20:43:00,72.1,69.7,29.81,NNE,33,0.0,0.0,92,0.00,,---,0.03,VWS V14.00,2013-07-07 01:43:00,
2013-07-06 20:48:00,71.9,69.8,29.81,NNE,33,0.0,0.0,93,0.00,,---,0.04,VWS V14.00,2013-07-07 01:48:00,
2013-07-06 20:53:00,71.7,69.6,29.81,NNE,33,0.0,0.0,93,0.00,,---,0.04,VWS V14.00,2013-07-07 01:53:00,
2013-07-06 20:58:00,71.5,69.7,29.81,NNE,33,0.0,0.0,94,0.00,,---,0.04,VWS V14.00,2013-07-07 01:58:00,
2013-07-06 21:03:00,71.4,69.6,29.81,NNE,33,0.0,0.0,94,0.00,,---,0.04,VWS V14.00,2013-07-07 02:03:00,
2013-07-06 21:08:00,71.3,69.8,29.81,NNE,33,0.0,0.0,95,0.00,,---,0.04,VWS V14.00,2013-07-07 02:08:00,
2013-07-06 21:13:00,71.2,69.7,29.82,NNE,33,0.0,0.0,95,0.00,,---,0.04,VWS V14.00,2013-07-07 02:13:00,
2013-07-06 21:18:00,71.2,69.7,29.81,NNE,33,0.0,0.0,95,0.00,,---,0.04,VWS V14.00,2013-07-07 02:18:00,
2013-07-06 21:24:00,71.1,69.9,29.82,NNE,33,0.0,0.0,96,0.00,,---,0.04,VWS V14.00,2013-07-07 02:24:00,
2013-07-06 21:29:00,71.1,69.9,29.82,NNE,33,0.0,0.0,96,0.00,,---,0.04,VWS V14.00,2013-07-07 02:29:00,
2013-07-06 21:34:00,71.0,69.8,29.82,NNE,33,0.0,0.0,96,0.00,,---,0.04,VWS V14.00,2013-07-07 02:34:00,
2013-07-06 21:39:00,71.0,69.8,29.82,NNE,33,0.0,0.0,96,0.00,,---,0.04,VWS V14.00,2013-07-07 02:39:00,
2013-07-06 21:44:00,71.0,69.8,29.82,NNE,33,0.0,0.0,96,0.00,,---,0.04,VWS V14.00,2013-07-07 02:44:00,
2013-07-06 21:49:00,70.9,69.7,29.82,NNE,33,0.0,0.0,96,0.00,,---,0.04,VWS V14.00,2013-07-07 02:49:00,
2013-07-06 21:55:00,70.7,69.5,29.82,NNE,33,0.0,0.0,96,0.00,,---,0.04,VWS V14.00,2013-07-07 02:55:00,
2013-07-06 22:00:00,70.6,69.4,29.82,NNE,33,0.0,0.0,96,0.00,,---,0.04,VWS V14.00,2013-07-07 03:00:00,
2013-07-06 22:05:00,70.5,69.3,29.82,NNE,33,0.0,0.0,96,0.00,,---,0.04,VWS V14.00,2013-07-07 03:05:00,
2013-07-06 22:10:00,70.4,69.2,29.82,NNE,33,0.0,0.0,96,0.00,,---,0.04,VWS V14.00,2013-07-07 03:10:00,
2013-07-06 22:15:00,70.3,69.1,29.82,NNE,33,0.0,0.0,96,0.00,,---,0.04,VWS V14.00,2013-07-07 03:15:00,
2013-07-06 22:21:00,70.3,69.1,29.82,NNE,33,0.0,0.0,96,0.00,,---,0.04,VWS V14.00,2013-07-07 03:21:00,
2013-07-06 22:26:00,70.2,69.3,29.82,NNE,33,0.0,1.0,97,0.00,,---,0.04,VWS V14.00,2013-07-07 03:26:00,
2013-07-06 22:31:00,70.1,68.9,29.82,NNE,33,0.0,1.0,96,0.00,,---,0.04,VWS V14.00,2013-07-07 03:31:00,
2013-07-06 22:37:00,69.7,68.2,29.82,NNE,33,0.0,0.0,95,0.00,,---,0.04,VWS V14.00,2013-07-07 03:37:00,
2013-07-06 22:42:00,69.6,68.1,29.82,NNE,33,0.0,0.0,95,0.00,,---,0.04,VWS V14.00,2013-07-07 03:42:00,
2013-07-06 22:47:00,69.5,68.0,29.81,NNE,33,0.0,0.0,95,0.00,,---,0.04,VWS V14.00,2013-07-07 03:47:00,
2013-07-06 22:53:00,69.7,67.9,29.81,NNE,33,0.0,1.0,94,0.00,,---,0.04,VWS V14.00,2013-07-07 03:53:00,
2013-07-06 22:58:00,69.9,67.5,29.81,SE,133,0.0,6.0,92,0.00,,---,0.04,VWS V14.00,2013-07-07 03:58:00,
2013-07-06 23:01:00,70.1,67.7,29.81,NNE,19,0.0,6.0,92,0.00,,---,0.04,VWS V14.00,2013-07-07 04:01:00,
2013-07-06 23:02:00,70.2,67.4,29.81,NNE,19,0.0,6.0,91,0.00,,---,0.04,VWS V14.00,2013-07-07 04:02:00,
2013-07-06 23:07:00,70.6,67.5,29.81,WSW,257,0.0,1.0,90,0.00,,---,0.04,VWS V14.00,2013-07-07 04:07:00,
2013-07-06 23:12:00,71.1,67.4,29.81,NNW,330,2.0,4.0,88,0.00,,---,0.04,VWS V14.00,2013-07-07 04:12:00,
2013-07-06 23:17:00,71.8,67.7,29.81,ENE,70,0.0,4.0,87,0.00,,---,0.04,VWS V14.00,2013-07-07 04:17:00,
2013-07-06 23:22:00,72.1,67.3,29.81,SE,129,0.0,3.0,85,0.00,,---,0.04,VWS V14.00,2013-07-07 04:22:00,
2013-07-06 23:27:00,72.5,67.4,29.81,SE,140,0.0,6.0,84,0.00,,---,0.04,VWS V14.00,2013-07-07 04:27:00,
2013-07-06 23:32:00,72.9,67.4,29.81,SE,126,0.0,6.0,83,0.00,,---,0.04,VWS V14.00,2013-07-07 04:32:00,
2013-07-06 23:37:00,73.2,67.4,29.81,SSE,148,2.0,4.0,82,0.00,,---,0.04,VWS V14.00,2013-07-07 04:37:00,
2013-07-06 23:42:00,73.5,67.3,29.80,SE,140,0.0,4.0,81,0.00,,---,0.04,VWS V14.00,2013-07-07 04:42:00,
2013-07-06 23:47:00,73.8,67.2,29.80,South,176,2.0,5.0,80,0.00,,---,0.04,VWS V14.00,2013-07-07 04:47:00,
2013-07-06 23:52:00,74.0,67.4,29.80,SSE,153,0.0,8.0,80,0.00,,---,0.04,VWS V14.00,2013-07-07 04:52:00,
2013-07-06 23:57:00,74.2,66.9,29.80,SSE,148,0.0,8.0,78,0.00,,---,0.04,VWS V14.00,2013-07-07 04:57:00,